sat.trackr.live / text

‹ back to catalog

STARLINK-32209

NORAD 60590 · 2024-150H

PAYLOAD ACTIVE UNKNOWN

§ Identity

Operator
Country
US
Launch date
2024-08-20
Launch site
AFETR
Launch vehicle
Mass (kg)
RCS (m²)

Purposes: comms

External: N2YO · Heavens-Above · Gunter

§ Orbital elements

Epoch: 2026-09-21T21:11:54.901248Z

Period
93.85 min
Inclination
53.1603°
Eccentricity
0.0001416
Mean motion
15.34388779 rev/d
Perigee alt
461.8 km
Apogee alt
463.7 km
Semi-major
6,840.9 km
B*
1.3895e-5
RAAN
111.1770°
Arg perigee
96.2350°
Mean anomaly
263.8814°
Rev number
11,814

§ Raw data

STARLINK-322091 60590U 24150H   26264.88327432  .00000093  00000+0  13895-4 0  99902 60590  53.1603 111.1770 0001416  96.2350 263.8814 15.34388779118147

JSON: /api/v1/satellites/60590 · /tle

For live sub-satellite position, see the globe view (requires WebGL).

§ Visibility from observer

Set your observer location to see the next 7 days of passes ≥ 10°. The values pass through the URL so the page stays shareable.

No JS? Fill the form by hand. The geolocation button needs JavaScript.